Showing default

LEMU-NGE, 60532

Orbit data source: Space-Track

LEMU-NGE, 60532 is a Chilean payload satellite in SSO that was launched on Fri, 16 Aug 2024 UTC via an FALCON 9 launch vehicle from the Air Force Western Test Range (AFWTR). Payload-class satellites include a variety of spacecraft equipped with specific instruments for various scientific and technological missions. These include communications satellites like Starlink; space stations such as the ISS; scientific satellites like the Hubble; Earth observation satellites from companies like Planet Labs, Umbra, and HawkEye 360; GPS; miniature CubeSats for education and research; and military/defense satellites.

Loading next visibility...
Identifier
60532, 2024-149BS
Orbit
SSO
Country
Flag of UnknownUnknown / CHLE
Related business
Manufacturer
NanoAvionics
Mission
Operational Commercial Imaging
Bus & Motor
CUBESAT 6U, Unknown motor
Mass
~10 kg wet, ~10 kg dry
Launch date (UTC)
2024-08-16 (1 year ago)
Launch vehicle
FALCON 9
Launch site
Air Force Western Test Range (AFWTR)
Object type
Payload
Rocket body
Debris
Shape & HBR
Box + 2 Pan, 0.1 m
Radar Cross Section
0.080 m², Small (<0.1 m²)

Expand to show TLE details & history
Last TLE update: 6 hours ago

TLE from 6 hours ago
0 LEMU-NGE
1 60532U 24149BS  25302.47019605  .00004301  00000-0  39420-3 0  9999
2 60532  97.7073  16.7961 0002240  81.5304 278.6171 14.95429606 65481
Epoch: 2025-10-29T11:17Z
TLE epoch observation values (Epoch: 2025-10-29T11:17:04.938Z)
Latitude
-0.00001°
Longitude
169.48265°
Altitude
583.855 km
Speed
7.569 km/s
True Right ascension
01h 07m 11s
True Declination
0° 00' 00"
Sunlit
Object was in full shadow at epoch
Visualization orbit readout
Latitude
Unknown
Longitude
Unknown
Altitude
Unknown
Speed
Unknown
Apparent Right ascension
Unknown
Apparent Declination
Unknown
Sunlit
N/A
Visualization observer readout
Local Sidereal Time
13:13:18
Azimuth
Unknown
Elevation
Unknown
Doppler factor
Unknown
Orbital elements
Apogee altitude
579.609 km
Perigee altitude
576.493 km
Semi-major axis
6,956.188 km
Eccentricity
0.00022
Inclination
97.7073°
RAAN
16.7961°
Arg. of periapsis
81.5304°
True anomaly
278.59172°
Mean anomaly
278.6171°
Eccentric anomaly
278.60441°
Mean motion
3.74099 °/min
Orbital period
96.23 mins
BSTAR
0.0003942
Loading maneuver chart data...
Computing Atmospheric mass density...
Loading historical data...
Loading historical data...
Loading historical data...
Loading historical data...
Loading historical data...
Loading historical data...
Loading historical data...

Documentation

Showing up to 5 results
|